Date,TemperatureHighF,TemperatureAvgF,TemperatureLowF,DewpointHighF,DewpointAvgF,DewpointLowF,HumidityHigh,HumidityAvg,HumidityLow,PressureMaxIn,PressureMinIn,WindSpeedMaxMPH,WindSpeedAvgMPH,GustSpeedMaxMPH,PrecipitationSumIn
2013-1-1,34.6,23.2,10.5,30.0,17.8,7.9,90,80,68,30.06,29.84,19,3,19,0.00
2013-1-2,26.2,20.6,11.0,22.3,16.2,8.5,92,83,72,30.24,30.00,16,2,19,0.00
2013-1-3,29.3,22.0,12.7,26.3,18.6,9.8,91,87,77,30.23,29.98,17,2,17,0.00
2013-1-4,35.2,31.8,27.9,27.3,25.3,21.7,86,77,65,30.02,29.87,30,6,32,0.02
2013-1-5,36.4,32.7,29.6,29.6,26.8,24.2,84,79,71,30.29,30.02,24,2,24,0.02
2013-1-6,38.3,35.3,31.5,33.8,31.1,25.5,93,85,77,30.07,29.88,16,2,17,0.13
2013-1-7,35.7,29.7,26.2,33.6,25.3,22.3,93,84,73,30.40,30.07,17,2,17,0.01
2013-1-8,40.9,32.5,27.6,28.6,24.9,21.4,84,73,60,30.33,30.16,20,2,20,0.04
2013-1-9,48.7,38.7,29.7,38.8,31.0,23.3,84,74,65,30.32,29.95,33,4,33,0.02
2013-1-10,43.7,38.0,34.3,32.2,30.4,28.4,86,74,61,30.59,30.32,19,2,21,0.00
2013-1-11,45.8,41.0,34.4,42.9,36.1,29.6,93,83,65,30.43,29.89,23,3,23,0.18
2013-1-12,58.7,51.5,44.8,52.3,47.9,42.8,95,88,79,30.00,29.93,16,3,16,0.00
2013-1-13,69.1,57.5,47.5,59.7,53.3,45.9,99,87,72,29.96,29.71,24,2,24,0.00
2013-1-14,54.7,37.5,29.2,52.5,31.5,22.0,95,79,64,30.39,29.70,34,4,34,0.00
2013-1-15,34.4,29.9,26.2,24.2,22.7,20.9,84,74,60,30.41,30.19,11,1,11,0.00
2013-1-16,38.5,33.3,29.8,31.9,27.4,23.7,85,79,61,30.19,29.77,23,1,23,0.00
2013-1-17,36.8,26.3,17.3,31.2,20.8,14.5,91,80,70,30.19,29.83,24,4,25,0.00
2013-1-18,32.6,20.9,11.6,19.4,13.8,9.5,92,75,58,30.44,30.03,25,2,25,0.01
2013-1-19,48.5,42.7,32.7,33.2,27.7,19.1,67,55,45,30.04,29.57,25,4,25,0.00
2013-1-20,49.0,32.5,19.7,38.1,20.9,10.3,83,63,48,30.08,29.43,40,8,40,0.02
2013-1-21,22.7,19.5,14.1,15.4,11.1,3.8,84,69,61,30.07,29.87,17,2,19,0.00
2013-1-22,15.0,11.2,8.0,3.8,-0.2,-3.7,71,59,48,30.20,29.90,27,4,27,0.00
2013-1-23,15.0,9.4,6.3,8.8,3.5,-2.5,88,77,62,30.25,30.11,15,1,15,0.00
2013-1-24,14.9,11.1,7.2,10.1,6.6,3.2,90,82,70,30.54,30.10,20,2,20,0.00
2013-1-25,17.6,12.3,8.3,12.2,7.9,3.0,89,82,70,30.52,30.10,7,1,7,0.00
2013-1-26,24.3,14.9,4.1,16.0,10.2,1.4,90,82,63,30.40,30.11,11,1,11,0.00
2013-1-27,28.8,21.4,11.9,19.5,16.4,9.8,93,81,67,30.58,30.38,7,1,7,0.01
2013-1-28,43.8,34.2,23.7,43.3,31.9,18.7,98,91,78,30.37,29.84,17,2,17,0.20
2013-1-29,55.5,43.2,33.5,54.4,42.6,33.0,100,98,94,30.05,29.73,15,2,15,0.35
2013-1-30,65.2,59.7,53.7,58.0,53.6,50.6,97,81,71,29.73,29.00,31,6,31,0.07
2013-1-31,55.9,31.9,22.9,53.2,24.3,13.5,94,74,53,29.70,28.99,40,9,40,0.17